Temperature
18 18 18 18 18 19 19 19 19 19 19 19 18 18 18 19 18 18 18 18 18 18 18 18 18 18 18 18 18 18 18 18 17 17 17 17 17 17 17 17 17 17 17
18 18 18 18 19 19 19 19 19 19 19 19 18 18 19 19 18 18 18 18 18 18 18 18 18 18 18 18 18 18 17 17 17 17 17 17 17 17 17 17 17 17 17
18 18 18 19 19 19 19 19 19 19 19 19 19 19 19 18 18 18 18 18 18 18 18 18 18 18 18 18 18 17 17 17 17 17 17 17 17 17 17 17 17 17 17
18 18 18 18 19 19 19 19 19 19 19 19 19 19 18 18 18 18 18 18 18 18 18 18 18 18 18 18 17 17 17 17 17 17 17 17 17 17 17 17 17 16 16
19 19 18 19 19 19 19 19 19 19 18 18 18 18 18 18 18 18 18 18 18 18 18 18 18 18 18 17 17 17 17 17 17 17 17 17 17 17 17 17 16 16 16
19 19 18 19 19 19 19 19 19 18 18 18 18 18 18 18 18 18 18 18 18 18 18 18 18 17 17 17 17 17 17 17 17 17 17 17 17 17 17 17 17 16 16
19 19 19 19 19 19 19 18 18 18 18 18 18 18 18 18 18 18 18 18 18 18 18 17 17 17 17 17 17 17 17 17 17 17 17 17 17 17 17 17 17 16 16
19 19 19 19 19 19 19 18 18 18 18 18 18 18 18 18 18 18 18 18 18 18 18 18 17 17 17 17 17 17 17 17 17 17 17 17 17 17 17 17 17 17 16
19 19 19 19 19 19 18 18 18 18 18 18 18 18 18 18 18 18 18 18 18 18 18 18 17 17 17 17 17 17 17 17 17 17 17 17 17 17 17 17 17 17 17
19 19 19 19 19 19 18 18 18 18 18 18 18 18 18 18 18 18 18 18 18 18 17 17 17 17 17 17 17 17 17 17 17 17 17 17 17 17 17 17 17 17 17
19 19 19 19 19 19 18 18 18 18 18 18 18 18 18 18 18 18 18 18 18 18 17 17 17 17 17 17 17 17 17 17 17 17 17 17 17 17 17 17 17 17 17
19 19 19 19 19 19 19 19 19 18 18 18 18 18 18 18 18 18 18 18 18 17 17 17 17 17 17 17 17 17 17 17 17 17 17 17 17 17 17 17 17 17 17
20 19 19 19 19 19 19 19 19 18 18 18 18 18 18 18 18 18 18 18 18 17 17 17 17 17 17 17 17 17 17 17 17 17 17 17 17 17 17 17 17 17 17
20 20 19 19 19 19 19 19 19 19 18 18 18 18 18 18 18 18 18 18 18 17 17 17 17 17 17 17 17 17 17 17 17 17 17 17 17 17 17 17 17 17 17
20 20 20 19 19 19 19 19 19 19 18 18 18 18 18 18 18 18 18 18 18 18 17 17 17 17 17 17 17 17 17 17 17 17 17 17 17 17 17 17 17 17 17
20 20 20 20 19 19 19 19 19 19 18 18 18 18 18 18 18 18 18 18 18 18 18 17 17 17 17 17 17 17 17 17 17 17 17 17 17 17 17 17 17 17 17
21 20 20 20 19 19 19 19 19 19 18 18 18 18 18 18 18 18 18 18 18 18 18 17 17 17 17 17 17 17 17 17 17 17 17 17 17 17 17 17 17 17 17
21 20 20 20 19 19 19 19 19 18 18 18 18 18 18 18 18 18 18 18 18 18 17 17 17 17 17 17 17 17 17 17 17 17 17 17 17 17 17 17 17 17 17
21 20 20 20 20 19 19 19 19 18 18 18 18 18 18 18 18 18 18 18 18 18 17 17 17 17 17 17 17 17 17 17 17 17 17 17 17 17 17 17 17 17 17
21 20 20 20 20 19 19 19 19 18 18 18 18 18 18 18 18 18 18 18 18 18 17 17 17 17 17 17 17 17 17 17 17 18 18 17 17 17 17 17 17 17 17
21 21 20 20 20 20 19 19 19 19 19 19 18 18 18 18 18 18 18 18 18 18 17 17 17 17 17 17 17 17 18 18 18 18 18 18 18 17 17 17 17 17 17
21 21 21 21 20 20 20 19 19 19 19 19 19 18 18 18 18 18 18 18 18 18 17 17 17 17 17 17 17 17 17 18 18 18 18 18 18 17 17 17 17 17 17
21 21 21 21 20 20 20 19 19 19 19 19 19 19 19 18 18 18 18 18 18 18 18 18 17 17 17 17 17 17 17 17 18 18 18 18 18 18 17 17 17 17 17
22 22 21 21 21 20 20 19 19 19 19 19 19 19 19 18 18 18 18 18 18 18 18 18 17 17 17 17 17 17 17 17 17 17 18 18 18 18 18 17 17 17 17
22 22 21 21 21 20 20 20 19 19 19 19 19 19 19 19 18 18 18 18 18 18 18 17 17 17 17 17 17 17 17 17 17 17 17 17 18 18 18 17 17 17 17
22 22 22 21 21 20 20 20 20 20 19 19 19 19 19 19 18 18 18 18 18 18 18 17 17 17 17 17 17 17 17 17 17 17 17 17 17 18 17 17 17 17 17
Wind_Speed
2 3 9 12 15 16 17 17 17 17 17 17 17 17 17 17 18 18 17 18 18 18 18 18 19 19 19 18 18 18 18 18 18 18 17 17 16 16 17 17 16 15 17
2 4 10 12 14 15 16 16 17 17 17 17 16 16 17 17 18 17 17 17 18 18 18 18 19 19 18 18 18 18 17 17 17 17 17 16 16 16 16 16 16 15 17
4 6 9 12 14 15 15 16 16 16 16 16 16 16 16 16 17 17 17 17 17 17 18 18 19 18 18 18 17 17 17 17 17 17 16 14 15 16 16 16 16 17 17
5 6 9 12 13 14 14 15 15 15 16 16 15 16 16 16 16 17 17 17 17 17 17 18 18 18 17 17 17 17 16 16 16 15 13 13 13 15 16 16 16 16 16
6 6 9 12 13 14 14 14 14 14 15 15 15 16 16 16 16 16 16 17 17 17 17 17 17 17 17 16 15 15 15 15 15 13 12 11 12 15 15 15 15 15 15
5 6 9 12 13 13 14 14 14 14 15 15 15 16 16 16 16 16 16 17 17 17 17 17 16 16 15 15 14 14 14 15 13 12 11 11 11 14 14 14 14 14 14
5 6 9 11 12 13 13 13 14 14 14 15 15 15 15 15 15 16 16 17 17 17 16 15 15 14 14 14 13 13 13 14 12 11 10 10 11 14 14 13 13 13 13
5 5 8 11 11 11 12 13 13 13 14 14 14 14 14 14 15 15 15 15 15 15 15 14 14 13 13 12 12 12 13 13 11 10 10 9 11 13 13 13 13 13 13
5 5 6 7 9 10 11 11 12 12 12 13 13 13 13 14 14 14 14 14 14 14 13 13 13 12 12 12 11 11 11 12 10 9 9 9 11 12 12 12 12 12 12
5 4 5 6 7 7 8 10 10 11 11 12 12 12 12 12 12 12 12 12 12 12 12 12 11 10 10 10 10 11 11 10 9 8 8 9 11 11 12 12 11 11 11
4 3 3 4 5 6 6 7 8 9 9 9 9 10 10 8 9 9 10 10 10 10 10 10 9 8 8 8 9 10 9 7 7 7 7 10 10 10 11 11 11 11 10
5 3 3 3 4 4 5 6 6 6 7 7 7 8 7 7 6 7 7 8 9 9 8 8 7 7 7 6 6 7 6 6 6 6 8 10 10 10 10 10 10 10 10
6 5 4 3 3 3 3 5 4 5 5 5 6 6 6 5 5 5 5 5 6 6 6 6 6 5 5 4 3 4 5 5 4 5 8 10 10 10 10 10 10 10 10
6 6 5 4 3 3 3 3 3 3 3 3 3 4 4 3 3 2 3 3 3 4 4 4 3 3 3 2 3 3 4 4 4 5 7 9 10 10 10 10 10 10 10
7 6 6 5 4 3 3 2 3 3 3 3 3 3 4 3 2 2 1 1 2 2 2 2 2 2 2 2 2 3 4 4 5 5 6 9 10 11 11 10 10 10 10
8 7 6 6 5 4 3 3 3 3 3 3 3 4 4 4 3 2 1 1 0 0 1 1 1 1 1 1 1 2 3 4 4 5 6 7 10 11 11 11 11 11 11
9 8 7 7 5 5 4 4 4 4 4 3 4 4 5 5 4 3 2 1 1 0 1 2 2 2 1 1 1 1 2 3 4 5 6 7 8 10 12 12 12 12 12
8 8 8 8 7 6 4 4 3 4 4 4 4 5 6 6 5 4 2 2 2 1 1 2 1 1 1 1 0 1 2 3 4 5 6 7 8 8 10 13 13 14 14
9 8 8 7 7 7 5 4 3 3 4 4 4 5 6 6 7 5 3 3 2 1 1 1 1 1 0 1 1 2 2 3 4 5 6 8 8 9 10 12 14 15 15
8 8 8 7 7 6 4 3 2 1 2 3 4 5 6 7 7 6 3 3 3 1 1 1 1 1 1 1 1 2 2 4 4 5 7 7 8 10 11 11 11 12 15
8 8 8 8 7 6 4 3 3 2 2 2 4 5 6 6 6 6 3 3 2 2 3 2 2 1 1 1 0 2 2 2 4 5 6 6 7 10 11 12 11 11 12
10 10 9 9 8 7 5 4 3 3 2 2 2 4 5 6 6 6 4 3 3 2 2 2 2 1 1 2 1 0 2 3 2 3 4 5 6 7 9 11 12 13 13
10 11 11 10 8 8 6 4 3 2 1 1 1 2 3 6 7 7 6 5 3 3 4 4 4 4 2 2 2 2 1 2 3 2 3 4 4 5 7 9 11 13 13
11 10 9 9 8 7 7 6 5 4 4 4 2 2 2 4 5 6 6 5 4 4 4 4 4 3 3 3 2 2 2 2 1 3 2 2 4 5 7 7 8 10 12
10 9 8 8 8 7 7 7 6 5 4 2 2 2 3 2 3 4 5 4 4 4 4 4 3 4 4 3 3 2 2 2 3 3 4 4 3 4 5 6 6 7 10
8 8 8 8 7 7 7 7 7 7 6 4 4 4 3 2 2 3 4 4 4 4 4 4 4 5 4 4 3 3 3 2 3 4 5 4 4 4 3 3 4 5 7
Wind_Direction
35 73 90 89 90 92 93 93 93 94 99 102 104 107 109 111 111 112 112 112 113 113 111 110 110 110 112 112 113 113 113 116 116 116 115 115 115 115 114 113 111 112 114
102 96 95 94 93 93 94 93 92 94 98 101 103 105 109 111 112 113 113 113 113 111 110 109 110 110 110 110 110 110 112 115 115 115 114 114 113 113 113 114 114 116 116
86 95 100 98 96 94 94 94 93 93 97 100 102 105 109 112 113 114 115 114 113 112 111 111 111 111 110 110 110 111 111 111 112 112 111 111 114 116 116 116 116 116 116
95 97 106 103 100 96 95 95 95 95 97 99 101 104 110 112 113 114 115 114 113 113 112 111 111 111 111 111 111 112 112 111 110 109 105 110 116 118 118 116 117 118 118
93 102 109 104 103 101 99 98 98 97 98 100 102 103 106 110 110 112 113 114 114 112 111 111 112 111 111 112 113 113 114 113 110 107 104 107 115 120 120 118 117 119 120
93 104 110 105 104 103 103 102 101 99 98 99 100 103 104 107 109 111 110 111 112 111 111 110 111 111 111 111 112 112 116 116 110 107 108 112 118 122 123 122 120 119 120
98 106 114 109 106 105 105 104 102 101 101 101 101 102 104 106 108 107 107 107 109 110 110 110 109 109 109 110 111 112 119 119 114 112 111 114 122 126 125 124 122 122 121
101 101 114 113 110 107 106 104 104 103 104 103 103 103 104 105 108 107 107 108 109 109 107 107 105 104 107 111 113 116 123 123 121 120 118 120 126 126 127 127 126 127 126
92 91 95 109 113 111 110 107 106 105 106 105 104 104 103 106 109 108 108 110 110 110 109 109 106 104 108 112 117 119 125 126 126 129 130 130 133 132 132 133 133 133 134
85 83 87 94 101 105 111 112 111 108 108 107 106 106 105 105 108 108 111 111 111 111 109 110 108 107 108 111 115 118 125 126 128 134 135 140 141 141 141 141 141 141 139
121 92 93 97 98 103 112 113 110 109 108 107 107 106 98 90 95 100 109 111 112 111 109 109 109 105 101 102 110 119 119 126 135 144 145 149 151 151 150 149 149 148 148
160 152 123 118 116 117 117 104 97 95 95 94 93 95 93 91 94 99 102 107 107 107 104 102 104 99 94 94 104 112 122 131 138 154 160 161 163 161 159 159 158 158 157
168 167 158 148 142 132 109 113 103 100 99 97 98 102 100 88 77 73 71 71 75 80 75 72 71 77 87 96 107 119 134 138 148 162 169 170 171 170 169 169 168 168 166
168 177 170 163 153 147 129 123 121 118 117 117 120 123 117 100 84 73 69 65 58 58 60 60 67 66 69 94 135 145 150 150 157 164 174 177 181 181 181 181 182 181 180
179 185 179 172 169 161 146 154 147 151 155 158 155 157 151 138 126 115 86 69 55 52 49 47 63 62 58 78 138 156 166 170 169 174 184 189 192 193 193 192 193 193 194
187 188 181 182 181 168 167 174 169 177 178 176 181 181 175 169 163 149 135 108 25 55 58 53 58 58 62 91 131 165 176 179 180 186 197 204 204 203 204 204 204 205 205
189 185 183 186 179 177 184 191 185 187 184 188 196 194 190 186 178 166 155 193 249 201 88 74 61 60 50 87 126 176 193 195 199 201 206 213 217 217 215 214 216 217 216
183 183 188 190 179 185 187 190 191 188 187 199 199 196 201 199 189 176 178 214 232 184 121 105 95 59 38 57 224 241 221 213 217 214 213 218 222 225 227 226 225 225 224
184 183 185 185 178 184 184 182 193 189 189 199 201 203 207 205 198 188 199 215 204 171 158 162 141 157 196 246 253 245 233 224 225 222 219 222 225 228 232 235 234 231 231
182 182 183 185 182 175 165 153 156 175 202 202 201 209 206 203 199 191 202 211 189 164 183 182 167 171 215 234 268 273 258 241 230 229 229 228 227 231 235 238 240 240 238
181 185 186 186 184 167 158 164 168 194 205 213 211 213 210 199 193 189 202 198 188 191 202 195 176 193 217 159 69 327 313 270 246 240 236 234 234 235 235 237 239 240 243
190 189 191 194 188 181 180 169 166 163 185 200 213 211 209 199 197 201 199 201 197 197 205 200 189 188 213 168 152 52 330 328 302 251 238 234 239 239 241 242 239 238 240
194 194 197 197 191 189 179 150 126 101 80 142 205 218 218 203 202 205 201 201 203 201 209 208 197 194 210 209 185 169 182 263 305 306 258 244 242 238 243 246 242 241 240
200 195 194 189 189 188 176 177 178 187 204 215 206 211 226 210 206 207 206 202 204 207 214 217 203 200 192 216 218 217 209 192 232 307 310 275 258 249 248 249 245 241 239
196 190 189 184 189 187 184 187 188 202 208 204 194 211 233 233 222 212 203 201 207 214 219 217 204 200 201 206 207 203 215 220 219 234 284 303 300 264 255 251 247 245 243
186 183 182 184 193 187 185 188 193 200 199 199 209 217 234 239 236 222 209 206 212 218 222 220 216 209 210 215 218 209 199 206 211 216 246 275 290 292 279 264 253 250 247
Height
1514 1514 1514 1513 1513 1513 1513 1513 1513 1513 1514 1515 1516 1517 1518 1520 1521 1522 1524 1526 1527 1529 1530 1532 1533 1535 1536 1538 1540 1541 1543 1545 1546 1548 1549 1551 1553 1554 1555 1556 1557 1558 1560
1517 1516 1517 1516 1516 1516 1516 1516 1517 1517 1517 1518 1519 1520 1521 1523 1524 1525 1527 1528 1530 1531 1533 1535 1536 1538 1539 1541 1543 1544 1546 1547 1549 1550 1552 1553 1555 1556 1557 1558 1559 1561 1562
1519 1519 1519 1519 1520 1520 1520 1520 1520 1521 1521 1522 1522 1523 1524 1525 1527 1528 1529 1531 1533 1534 1536 1537 1539 1540 1542 1544 1545 1547 1548 1550 1551 1553 1554 1555 1557 1558 1559 1561 1562 1563 1564
1521 1522 1522 1522 1523 1523 1523 1524 1524 1524 1525 1525 1526 1526 1527 1528 1529 1531 1532 1534 1535 1537 1538 1540 1542 1543 1545 1547 1548 1550 1551 1553 1554 1555 1556 1558 1559 1560 1561 1563 1564 1565 1566
1523 1524 1525 1526 1526 1526 1526 1527 1527 1528 1528 1529 1529 1530 1530 1531 1533 1534 1535 1536 1538 1539 1541 1543 1544 1546 1548 1549 1551 1553 1554 1555 1556 1557 1559 1560 1561 1562 1564 1565 1566 1567 1569
1526 1527 1528 1529 1529 1529 1530 1530 1531 1531 1531 1532 1532 1533 1534 1535 1536 1537 1538 1539 1540 1542 1544 1545 1547 1549 1551 1552 1554 1555 1556 1557 1559 1560 1561 1562 1563 1564 1565 1567 1568 1569 1570
1529 1530 1531 1532 1532 1533 1533 1533 1534 1534 1535 1535 1536 1537 1538 1538 1539 1540 1541 1542 1544 1545 1547 1549 1550 1552 1554 1555 1556 1558 1559 1560 1561 1562 1563 1564 1565 1566 1567 1568 1570 1571 1572
1532 1533 1534 1535 1535 1536 1536 1537 1537 1538 1538 1539 1539 1540 1541 1541 1542 1543 1545 1546 1547 1549 1550 1551 1553 1555 1556 1558 1559 1560 1561 1562 1563 1564 1565 1566 1567 1568 1569 1570 1571 1573 1574
1535 1536 1536 1537 1538 1539 1540 1540 1541 1541 1542 1542 1543 1543 1544 1544 1545 1547 1548 1549 1550 1552 1553 1555 1556 1557 1559 1560 1561 1562 1563 1564 1565 1566 1567 1568 1569 1570 1571 1572 1573 1574 1575
1537 1538 1539 1540 1541 1542 1542 1543 1544 1544 1545 1545 1546 1546 1547 1548 1549 1550 1551 1552 1553 1555 1556 1557 1559 1560 1561 1562 1563 1564 1565 1566 1567 1568 1568 1569 1570 1571 1572 1573 1574 1575 1576
1539 1540 1541 1542 1543 1544 1545 1546 1546 1547 1548 1548 1549 1550 1550 1551 1552 1552 1553 1555 1556 1558 1559 1560 1561 1563 1564 1564 1565 1566 1567 1568 1568 1569 1570 1570 1571 1572 1573 1574 1575 1576 1577
1540 1541 1543 1544 1545 1546 1547 1548 1549 1549 1550 1551 1552 1553 1554 1554 1555 1555 1556 1558 1559 1560 1561 1563 1564 1565 1566 1567 1567 1568 1569 1569 1570 1570 1571 1572 1572 1573 1574 1575 1576 1577 1578
1541 1543 1544 1546 1547 1548 1549 1550 1551 1552 1553 1554 1555 1555 1556 1557 1558 1558 1559 1560 1562 1563 1564 1565 1566 1567 1568 1568 1569 1570 1570 1570 1571 1571 1572 1572 1573 1574 1575 1576 1577 1578 1579
1542 1544 1545 1547 1549 1550 1551 1552 1553 1554 1555 1556 1557 1558 1558 1559 1560 1561 1562 1563 1564 1565 1566 1567 1568 1569 1569 1570 1570 1571 1571 1571 1572 1572 1573 1573 1574 1575 1576 1577 1577 1578 1579
1543 1545 1547 1549 1550 1552 1553 1554 1555 1556 1557 1558 1559 1560 1560 1561 1562 1563 1564 1565 1566 1567 1568 1569 1569 1570 1570 1571 1571 1572 1572 1572 1573 1573 1574 1574 1575 1575 1576 1577 1577 1578 1579
1544 1546 1548 1550 1552 1553 1554 1555 1557 1558 1559 1560 1560 1561 1562 1563 1564 1565 1566 1566 1567 1568 1569 1570 1570 1571 1571 1571 1572 1572 1573 1573 1573 1574 1574 1574 1575 1575 1576 1577 1577 1578 1578
1545 1547 1549 1551 1553 1554 1555 1557 1558 1559 1560 1561 1562 1563 1564 1564 1565 1566 1567 1567 1568 1569 1570 1570 1571 1571 1571 1572 1572 1572 1573 1573 1573 1573 1574 1574 1574 1575 1575 1576 1576 1577 1578
1545 1547 1550 1551 1553 1555 1556 1557 1559 1560 1561 1562 1563 1564 1565 1565 1566 1567 1567 1568 1569 1569 1570 1570 1571 1571 1571 1571 1572 1572 1572 1573 1573 1573 1573 1574 1574 1574 1575 1575 1575 1576 1576
1546 1548 1550 1551 1553 1555 1556 1558 1559 1560 1561 1562 1563 1564 1565 1566 1566 1567 1568 1568 1569 1569 1570 1570 1570 1571 1571 1571 1571 1572 1572 1572 1572 1572 1572 1573 1573 1573 1573 1574 1574 1574 1574
1545 1547 1549 1551 1553 1554 1556 1558 1559 1560 1561 1562 1563 1564 1565 1566 1567 1567 1568 1568 1569 1569 1569 1570 1570 1571 1571 1571 1571 1571 1571 1571 1571 1571 1571 1571 1571 1571 1571 1572 1572 1572 1572
1543 1545 1547 1549 1552 1553 1555 1556 1558 1559 1560 1561 1562 1563 1564 1565 1566 1566 1567 1568 1568 1568 1569 1569 1569 1570 1570 1570 1570 1569 1569 1569 1569 1569 1569 1569 1569 1569 1569 1569 1570 1570 1570
1540 1543 1546 1548 1550 1552 1554 1556 1557 1559 1560 1561 1562 1562 1563 1564 1565 1566 1566 1567 1567 1567 1567 1568 1568 1568 1568 1569 1569 1568 1568 1568 1566 1567 1567 1566 1567 1567 1567 1567 1567 1567 1567
1538 1541 1544 1546 1549 1551 1553 1555 1556 1557 1558 1559 1560 1561 1562 1563 1564 1564 1565 1565 1565 1566 1566 1566 1567 1567 1567 1567 1567 1568 1567 1566 1565 1565 1564 1564 1564 1564 1564 1564 1564 1564 1564
1535 1539 1542 1545 1547 1549 1551 1553 1554 1555 1556 1557 1559 1560 1561 1561 1562 1562 1563 1563 1563 1564 1564 1564 1564 1565 1565 1565 1565 1565 1566 1565 1565 1563 1563 1562 1562 1562 1561 1561 1561 1561 1561
1534 1537 1540 1543 1545 1547 1549 1551 1552 1553 1554 1556 1557 1558 1559 1559 1560 1560 1560 1560 1561 1561 1561 1562 1562 1562 1562 1562 1563 1563 1563 1563 1562 1562 1560 1560 1559 1559 1558 1558 1557 1557 1557
1531 1534 1538 1540 1542 1545 1546 1548 1549 1551 1552 1553 1554 1555 1556 1557 1557 1557 1558 1558 1558 1558 1558 1559 1559 1559 1559 1559 1560 1560 1560 1560 1559 1559 1558 1557 1556 1556 1555 1555 1554 1554 1554